Date String (YYYY-MM-DD hh:mm:ss) UTC,Instrument flags,absolute air pressure of the measurement (hPa),sample flow rate (lpm),inlet stack bypass flow (lpm),air temperature of the measurement (°C),ambient temperature measured by the external sensor (°C),aerosol sample conditioner tube jacket temperature (°C),OPC LED temperature (°C),internal box temperature (°C),relative humidity of the measurement (%),span deviation,mass concentration of particles derived from Lorenz-Mie calculation of OPC scattering (μg/m³),mass concentration of particles derived from Lorenz-Mie calculation of OPC scattering (μg/m³),mass concentration of particles derived from Lorenz-Mie calculation of OPC scattering (μg/m³)
DateTimeUTC,F1_M11,P_M11,Q1_M11,Q2_M11,T1_M11,T2_M11,T3_M11,T4_M11,T5_M11,U1_M11,ZSPAN_M11,X0_M11,X2_M11,X1_M11
2024-03-09 16:00:00,SystemResetWarning,0832.5,5.00,000.00,018.3,017.7,000.0,026.9,020.0,17.2,0000.0,0003.18,0002.42,0002.12
2024-03-09 16:01:00,SystemResetWarning,0832.5,5.00,000.00,018.3,017.7,000.0,026.8,020.0,17.3,0000.0,0003.24,0002.35,0002.04
2024-03-09 16:02:00,SystemResetWarning,0832.5,4.99,000.00,018.3,017.7,000.0,026.8,020.0,16.9,0000.0,0003.18,0002.29,0002.00
2024-03-09 16:03:00,SystemResetWarning,0832.5,5.01,000.00,018.3,017.6,000.0,026.8,020.0,18.4,0000.0,0003.17,0002.28,0001.97
2024-03-09 16:04:00,SystemResetWarning,0832.4,5.00,000.00,018.3,017.6,000.0,026.8,020.0,17.4,0000.0,0003.18,0002.27,0001.97
2024-03-09 16:05:00,SystemResetWarning,0832.5,5.00,000.00,018.3,017.6,000.0,026.8,020.0,16.9,0000.0,0003.12,0002.26,0001.99
2024-03-09 16:06:00,SystemResetWarning,0832.5,5.01,000.00,018.2,017.6,000.0,026.8,020.0,17.8,0000.0,0003.09,0002.23,0001.96
2024-03-09 16:07:00,SystemResetWarning,0832.5,5.00,000.00,018.3,017.6,000.0,026.8,020.0,17.9,0000.0,0003.07,0002.22,0001.96
2024-03-09 16:08:00,SystemResetWarning,0832.5,5.00,000.00,018.3,017.6,000.0,026.8,020.0,18.1,0000.0,0003.32,0002.20,0001.96
2024-03-09 16:09:00,SystemResetWarning,0832.4,5.01,000.00,018.2,017.6,000.0,026.8,020.0,17.6,0000.0,0003.48,0002.14,0001.90
2024-03-09 16:10:00,SystemResetWarning,0832.4,5.01,000.00,018.2,017.6,000.0,026.8,020.0,17.3,0000.0,0003.33,0002.09,0001.88
2024-03-09 16:11:00,SystemResetWarning,0832.5,4.99,000.00,018.3,017.6,000.0,026.8,020.0,17.5,0000.0,0003.34,0002.12,0001.88
2024-03-09 16:12:00,SystemResetWarning,0832.4,5.00,000.00,018.3,017.6,000.0,026.8,020.0,17.7,0000.0,0003.27,0002.16,0001.94
2024-03-09 16:13:00,SystemResetWarning,0832.4,5.01,000.00,018.3,017.6,000.0,026.8,020.0,17.9,0000.0,0003.21,0002.17,0001.96
2024-03-09 16:14:00,SystemResetWarning,0832.4,5.00,000.00,018.3,017.6,000.0,026.8,020.0,18.1,0000.0,0003.24,0002.18,0001.98
2024-03-09 16:15:00,SystemResetWarning,0832.4,5.00,000.00,018.3,017.6,000.0,026.8,020.0,17.1,0000.0,0003.37,0002.24,0001.99
2024-03-09 16:16:00,SystemResetWarning,0832.4,5.00,000.00,018.3,017.7,000.0,026.8,020.0,16.4,0000.0,0003.52,0002.31,0002.03
2024-03-09 16:17:00,SystemResetWarning,0832.4,5.00,000.00,018.3,017.7,000.0,026.8,020.0,17.3,0000.0,0003.59,0002.36,0002.07
2024-03-09 16:18:00,SystemResetWarning,0832.4,5.00,000.00,018.3,017.7,000.0,026.8,020.0,18.6,0000.0,0003.80,0002.46,0002.15
2024-03-09 16:19:00,SystemResetWarning,0832.4,5.00,000.00,018.3,017.7,000.0,026.8,020.0,17.9,0000.0,0003.64,0002.52,0002.20
2024-03-09 16:20:00,SystemResetWarning,0832.4,4.99,000.00,018.3,017.7,000.0,026.8,020.0,17.5,0000.0,0003.54,0002.61,0002.29
2024-03-09 16:21:00,SystemResetWarning,0832.4,5.01,000.00,018.3,017.7,000.0,026.8,020.0,18.2,0000.0,0003.57,0002.66,0002.35
2024-03-09 16:22:00,SystemResetWarning,0832.4,5.01,000.00,018.3,017.7,000.0,026.8,020.0,18.2,0000.0,0003.77,0002.68,0002.38
2024-03-09 16:23:00,SystemResetWarning,0832.4,4.99,000.00,018.3,017.7,000.0,026.8,020.0,18.6,0000.0,0004.06,0002.74,0002.41
2024-03-09 16:24:00,SystemResetWarning,0832.4,5.00,000.00,018.3,017.7,000.0,026.8,020.0,19.1,0000.0,0004.16,0002.78,0002.44
2024-03-09 16:25:00,SystemResetWarning,0832.3,4.99,000.00,018.3,017.7,000.0,026.8,020.0,19.2,0000.0,0004.16,0002.81,0002.45
2024-03-09 16:26:00,SystemResetWarning,0832.4,5.00,000.00,018.3,017.7,000.0,026.8,020.0,18.6,0000.0,0004.04,0002.76,0002.45
2024-03-09 16:27:00,SystemResetWarning,0832.4,5.00,000.00,018.3,017.7,000.0,026.8,020.0,18.8,0000.0,0003.97,0002.73,0002.44
2024-03-09 16:28:00,SystemResetWarning,0832.3,5.00,000.00,018.3,017.8,000.0,026.8,020.0,19.1,0000.0,0004.07,0002.76,0002.44
2024-03-09 16:29:00,SystemResetWarning,0832.3,5.01,000.00,018.3,017.8,000.0,026.8,020.0,19.5,0000.0,0003.99,0002.76,0002.42
2024-03-09 16:30:00,SystemResetWarning,0832.3,5.01,000.00,018.3,017.8,000.0,026.8,020.0,18.5,0000.0,0003.96,0002.78,0002.42
2024-03-09 16:31:00,SystemResetWarning,0832.3,5.00,000.00,018.3,017.8,000.0,026.8,020.0,18.3,0000.0,0004.02,0002.80,0002.40
2024-03-09 16:32:00,SystemResetWarning,0832.3,5.00,000.00,018.3,017.8,000.0,026.8,020.0,19.2,0000.0,0004.06,0002.80,0002.38
2024-03-09 16:33:00,SystemResetWarning,0832.3,5.00,000.00,018.3,017.7,000.0,026.8,020.0,18.8,0000.0,0003.90,0002.77,0002.38
2024-03-09 16:34:00,SystemResetWarning,0832.3,5.01,000.00,018.3,017.7,000.0,026.8,020.0,19.2,0000.0,0003.45,0002.72,0002.38
2024-03-09 16:35:00,SystemResetWarning,0832.3,5.00,000.00,018.3,017.7,000.0,026.8,020.0,19.2,0000.0,0003.35,0002.69,0002.37
2024-03-09 16:36:00,SystemResetWarning,0832.3,5.01,000.00,018.3,017.7,000.0,026.8,020.0,19.1,0000.0,0003.37,0002.70,0002.40
2024-03-09 16:37:00,SystemResetWarning,0832.3,5.00,000.00,018.3,017.7,000.0,026.8,020.0,18.4,0000.0,0003.42,0002.74,0002.42
2024-03-09 16:38:00,SystemResetWarning,0832.3,5.00,000.00,018.3,017.8,000.0,026.8,020.0,17.6,0000.0,0003.44,0002.78,0002.46
2024-03-09 16:39:00,SystemResetWarning,0832.3,5.00,000.00,018.3,017.8,000.0,026.8,020.0,18.1,0000.0,0003.44,0002.78,0002.50
2024-03-09 16:40:00,SystemResetWarning,0832.3,4.99,000.00,018.3,017.8,000.0,026.8,020.1,18.8,0000.0,0003.41,0002.80,0002.54
2024-03-09 16:41:00,SystemResetWarning,0832.4,4.99,000.00,018.3,017.9,000.0,026.8,020.1,18.3,0000.0,0003.47,0002.86,0002.61
2024-03-09 16:42:00,SystemResetWarning,0832.4,5.00,000.00,018.3,017.8,000.0,026.8,020.1,16.5,0000.0,0003.50,0002.90,0002.68
2024-03-09 16:43:00,SystemResetWarning,0832.4,5.00,000.00,018.3,017.8,000.0,026.8,020.0,16.6,0000.0,0004.72,0002.99,0002.75
2024-03-09 16:44:00,SystemResetWarning,0832.4,5.00,000.00,018.3,017.8,000.0,026.8,020.0,17.2,0000.0,0005.26,0003.06,0002.82
2024-03-09 16:45:00,SystemResetWarning,0832.4,5.01,000.00,018.3,017.8,000.0,026.8,020.0,17.6,0000.0,0005.49,0003.14,0002.91
2024-03-09 16:46:00,SystemResetWarning,0832.4,5.01,000.00,018.3,017.8,000.0,026.8,020.0,17.2,0000.0,0006.35,0003.22,0002.99
2024-03-09 16:47:00,SystemResetWarning,0832.4,5.01,000.00,018.3,017.8,000.0,026.8,020.0,17.8,0000.0,0007.62,0003.26,0003.05
2024-03-09 16:48:00,SystemResetWarning,0832.3,5.00,000.00,018.3,017.8,000.0,026.8,020.0,18.5,0000.0,0007.71,0003.31,0003.10
2024-03-09 16:49:00,SystemResetWarning,0832.3,4.99,000.00,018.3,017.8,000.0,026.8,020.1,18.5,0000.0,0007.76,0003.33,0003.13
2024-03-09 16:50:00,SystemResetWarning,0832.3,5.00,000.00,018.3,017.9,000.0,026.8,020.1,18.0,0000.0,0007.82,0003.37,0003.15
2024-03-09 16:51:00,SystemResetWarning,0832.3,4.99,000.00,018.3,017.9,000.0,026.8,020.1,17.5,0000.0,0007.82,0003.39,0003.17
2024-03-09 16:52:00,SystemResetWarning,0832.3,5.01,000.00,018.3,017.9,000.0,026.8,020.1,17.4,0000.0,0008.40,0003.39,0003.18
2024-03-09 16:53:00,SystemResetWarning,0832.3,5.00,000.00,018.3,017.9,000.0,026.8,020.1,17.2,0000.0,0008.59,0003.39,0003.19
2024-03-09 16:54:00,SystemResetWarning,0832.3,5.01,000.00,018.3,017.9,000.0,026.8,020.1,17.6,0000.0,0008.10,0003.39,0003.20
2024-03-09 16:55:00,SystemResetWarning,0832.3,5.00,000.00,018.3,017.9,000.0,026.8,020.1,17.9,0000.0,0007.71,0003.40,0003.21
2024-03-09 16:56:00,SystemResetWarning,0832.3,5.00,000.00,018.4,017.9,000.0,026.8,020.1,17.5,0000.0,0007.68,0003.38,0003.19
2024-03-09 16:57:00,SystemResetWarning,0832.4,5.00,000.00,018.4,017.9,000.0,026.8,020.1,17.8,0000.0,0007.48,0003.36,0003.19
2024-03-09 16:58:00,SystemResetWarning,0832.3,4.99,000.00,018.4,017.9,000.0,026.8,020.1,17.6,0000.0,0006.02,0003.34,0003.19
2024-03-09 16:59:00,SystemResetWarning,0832.3,5.00,000.00,018.4,017.9,000.0,026.8,020.1,18.4,0000.0,0005.66,0003.34,0003.18
